| time (UTC) | temp F | wind direction | speed knots | gust knots | rain 1hr in | rain 24hr in | rain mn in | humidity % | barometer mb |
| 20260901233758 | 0 | 0.0 | 0.0 | 0.00 | 0.00 | 0.00 | 1018.3 | ||
| 20260901233253 | 0 | 0.0 | 0.0 | 0.00 | 0.00 | 0.00 | 1018.5 | ||
| 20260901232748 | 0 | 0.0 | 0.0 | 0.00 | 0.00 | 0.00 | 1018.4 | ||
| 20260901232238 | 0 | 0.0 | 0.0 | 0.00 | 0.00 | 0.00 | 1018.6 | ||
| 20260901231734 | 0 | 0.0 | 0.0 | 0.00 | 0.00 | 0.00 | 1018.5 | ||
| 20260901231230 | 0 | 0.0 | 0.0 | 0.00 | 0.00 | 0.00 | 1018.6 | ||
| 20260901230726 | 0 | 0.0 | 0.0 | 0.00 | 0.00 | 0.00 | 1018.4 | ||
| 20260901230226 | 0 | 0.0 | 0.0 | 0.00 | 0.00 | 0.00 | 1018.6 | ||
| 20260901225721 | 0 | 0.0 | 0.0 | 0.00 | 0.00 | 0.00 | 1018.4 | ||
| 20260901225215 | 0 | 0.0 | 0.0 | 0.00 | 0.00 | 0.00 | 1018.6 | ||
| 20260901224711 | 0 | 0.0 | 0.0 | 0.00 | 0.00 | 0.00 | 1018.5 | ||
| 20260901224207 | 0 | 0.0 | 0.0 | 0.00 | 0.00 | 0.00 | 1018.5 | ||
| 20260901223703 | 97 | 239 | 3.5 | 3.5 | 0.00 | 0.00 | 0.00 | 77 | 1018.5 |
| 20260901223157 | 97 | 239 | 3.5 | 3.5 | 0.00 | 0.00 | 0.00 | 77 | 1018.6 |
| 20260901222654 | 97 | 239 | 3.5 | 3.5 | 0.00 | 0.00 | 0.00 | 77 | 1018.6 |
| 20260901222150 | 97 | 239 | 3.5 | 3.5 | 0.00 | 0.00 | 0.00 | 77 | 1018.5 |
| 20260901221646 | 97 | 239 | 3.5 | 3.5 | 0.00 | 0.00 | 0.00 | 77 | 1018.5 |
| 20260901221141 | 97 | 239 | 3.5 | 3.5 | 0.00 | 0.00 | 0.00 | 77 | 1018.6 |
| 20260901220640 | 97 | 239 | 3.5 | 3.5 | 0.00 | 0.00 | 0.00 | 77 | 1018.6 |
| 20260901220139 | 97 | 239 | 3.5 | 3.5 | 0.00 | 0.00 | 0.00 | 77 | 1018.4 |
| 20260901215638 | 97 | 239 | 3.5 | 3.5 | 0.00 | 0.00 | 0.00 | 77 | 1018.3 |
| 20260901215132 | 97 | 239 | 3.5 | 3.5 | 0.00 | 0.00 | 0.00 | 77 | 1018.5 |
| 20260901214631 | 97 | 239 | 3.5 | 3.5 | 0.00 | 0.00 | 0.00 | 77 | 1018.6 |
| 20260901214131 | 97 | 239 | 3.5 | 4.3 | 0.00 | 0.00 | 0.00 | 77 | 1018.8 |
| 20260901213625 | 97 | 237 | 2.6 | 4.3 | 0.00 | 0.00 | 0.00 | 77 | 1018.7 |
| 20260901213120 | 97 | 166 | 0.0 | 4.3 | 0.00 | 0.00 | 0.00 | 77 | 1018.6 |
| 20260901212619 | 98 | 249 | 0.9 | 4.3 | 0.00 | 0.00 | 0.00 | 77 | 1018.7 |
| 20260901212116 | 98 | 195 | 3.5 | 5.2 | 0.00 | 0.00 | 0.00 | 77 | 1019.1 |
| 20260901211610 | 97 | 220 | 0.0 | 4.3 | 0.00 | 0.00 | 0.00 | 77 | 1018.6 |
| 20260901211107 | 97 | 210 | 3.5 | 4.3 | 0.00 | 0.00 | 0.00 | 77 | 1019.1 |
| 20260901210602 | 96 | 188 | 2.6 | 5.2 | 0.00 | 0.00 | 0.00 | 77 | 1018.9 |
| 20260901210058 | 96 | 151 | 1.7 | 4.3 | 0.00 | 0.00 | 0.00 | 77 | 1019.2 |
| 20260901205554 | 95 | 133 | 5.2 | 7.0 | 0.00 | 0.00 | 0.00 | 77 | 1019.1 |
| 20260901205053 | 96 | 190 | 1.7 | 7.0 | 0.00 | 0.00 | 0.00 | 77 | 1019.2 |
| 20260901204550 | 97 | 151 | 4.3 | 4.3 | 0.00 | 0.00 | 0.00 | 77 | 1019.3 |
| 20260901204044 | 97 | 214 | 1.7 | 2.6 | 0.00 | 0.00 | 0.00 | 77 | 1019.2 |
| 20260901203539 | 98 | 130 | 2.6 | 3.5 | 0.00 | 0.00 | 0.00 | 77 | 1019.3 |
| 20260901203034 | 97 | 156 | 1.7 | 4.3 | 0.00 | 0.00 | 0.00 | 77 | 1019.3 |
| 20260901202528 | 95 | 86 | 2.6 | 7.8 | 0.00 | 0.00 | 0.00 | 77 | 1019.4 |
| 20260901202025 | 96 | 206 | 1.7 | 3.5 | 0.00 | 0.00 | 0.00 | 77 | 1019.3 |
| 20260901201520 | 95 | 160 | 3.5 | 5.2 | 0.00 | 0.00 | 0.00 | 77 | 1019.4 |
| 20260901201014 | 95 | 159 | 1.7 | 6.1 | 0.00 | 0.00 | 0.00 | 77 | 1019.7 |
| 20260901200509 | 97 | 188 | 1.7 | 5.2 | 0.00 | 0.00 | 0.00 | 77 | 1019.5 |
| 20260901200009 | 97 | 203 | 0.9 | 2.6 | 0.00 | 0.00 | 0.00 | 77 | 1019.8 |
| 20260901195506 | 95 | 125 | 2.6 | 6.1 | 0.00 | 0.00 | 0.00 | 77 | 1019.7 |
| 20260901195006 | 96 | 180 | 1.7 | 7.8 | 0.00 | 0.00 | 0.00 | 77 | 1019.9 |
| 20260901194501 | 97 | 148 | 3.5 | 3.5 | 0.00 | 0.00 | 0.00 | 77 | 1019.8 |
| 20260901193956 | 97 | 75 | 0.0 | 2.6 | 0.00 | 0.00 | 0.00 | 77 | 1019.9 |
| 20260901193451 | 95 | 99 | 0.0 | 4.3 | 0.00 | 0.00 | 0.00 | 77 | 1019.9 |
| 20260901192950 | 95 | 197 | 4.3 | 6.1 | 0.00 | 0.00 | 0.00 | 77 | 1020.0 |
| 20260901192447 | 94 | 192 | 1.7 | 4.3 | 0.00 | 0.00 | 0.00 | 77 | 1020.1 |
| 20260901191942 | 94 | 114 | 5.2 | 5.2 | 0.00 | 0.00 | 0.00 | 77 | 1020.1 |
| 20260901191438 | 94 | 117 | 1.7 | 5.2 | 0.00 | 0.00 | 0.00 | 77 | 1020.1 |
| 20260901190933 | 94 | 145 | 2.6 | 6.1 | 0.00 | 0.00 | 0.00 | 77 | 1020.4 |
| 20260901190428 | 95 | 181 | 4.3 | 7.8 | 0.00 | 0.00 | 0.00 | 77 | 1020.2 |
| 20260901185926 | 94 | 266 | 1.7 | 1.7 | 0.00 | 0.00 | 0.00 | 77 | 1020.4 |
| 20260901185426 | 93 | 237 | 2.6 | 7.0 | 0.00 | 0.00 | 0.00 | 77 | 1020.6 |
| 20260901184920 | 95 | 198 | 1.7 | 9.6 | 0.00 | 0.00 | 0.00 | 77 | 1020.5 |
| 20260901184416 | 94 | 213 | 4.3 | 8.7 | 0.00 | 0.00 | 0.00 | 77 | 1020.6 |
| 20260901183911 | 93 | 154 | 2.6 | 2.6 | 0.00 | 0.00 | 0.00 | 77 | 1020.3 |
| 20260901183410 | 93 | 278 | 0.9 | 7.8 | 0.00 | 0.00 | 0.00 | 77 | 1020.6 |
| 20260901182907 | 93 | 118 | 2.6 | 4.3 | 0.00 | 0.00 | 0.00 | 77 | 1020.6 |
| 20260901182401 | 93 | 118 | 2.6 | 4.3 | 0.00 | 0.00 | 0.00 | 77 | 1020.8 |
| 20260901181856 | 94 | 162 | 2.6 | 5.2 | 0.00 | 0.00 | 0.00 | 77 | 1020.7 |
| 20260901181351 | 94 | 140 | 4.3 | 5.2 | 0.00 | 0.00 | 0.00 | 77 | 1020.8 |
| 20260901180850 | 94 | 140 | 4.3 | 7.0 | 0.00 | 0.00 | 0.00 | 77 | 1021.1 |
| 20260901180349 | 94 | 146 | 1.7 | 7.0 | 0.00 | 0.00 | 0.00 | 77 | 1021.1 |
| 20260901175848 | 93 | 194 | 6.1 | 7.0 | 0.00 | 0.00 | 0.00 | 77 | 1021.0 |
| 20260901175343 | 93 | 194 | 6.1 | 7.0 | 0.00 | 0.00 | 0.00 | 77 | 1021.3 |
| 20260901174838 | 92 | 204 | 3.5 | 6.1 | 0.00 | 0.00 | 0.00 | 76 | 1021.4 |
| 20260901174334 | 92 | 204 | 3.5 | 6.1 | 0.00 | 0.00 | 0.00 | 76 | 1021.2 |
| 20260901173829 | 92 | 178 | 3.5 | 7.8 | 0.00 | 0.00 | 0.00 | 77 | 1021.3 |
| 20260901173324 | 92 | 188 | 3.5 | 6.1 | 0.00 | 0.00 | 0.00 | 77 | 1021.5 |
| 20260901172821 | 92 | 154 | 2.6 | 7.8 | 0.00 | 0.00 | 0.00 | 77 | 1021.7 |
| 20260901172320 | 92 | 254 | 3.5 | 5.2 | 0.00 | 0.00 | 0.00 | 77 | 1021.6 |
| 20260901171818 | 92 | 221 | 5.2 | 11.3 | 0.00 | 0.00 | 0.00 | 77 | 1021.6 |
| 20260901171317 | 92 | 263 | 5.2 | 11.3 | 0.00 | 0.00 | 0.00 | 76 | 1021.7 |
| 20260901170816 | 91 | 251 | 5.2 | 6.1 | 0.00 | 0.00 | 0.00 | 77 | 1021.8 |
| 20260901170316 | 91 | 225 | 4.3 | 9.6 | 0.00 | 0.00 | 0.00 | 76 | 1021.6 |
| 20260901165815 | 91 | 223 | 3.5 | 8.7 | 0.00 | 0.00 | 0.00 | 76 | 1022.0 |
| 20260901165310 | 91 | 201 | 8.7 | 9.6 | 0.00 | 0.00 | 0.00 | 76 | 1021.9 |
| 20260901164807 | 92 | 294 | 0.0 | 4.3 | 0.00 | 0.00 | 0.00 | 77 | 1021.9 |
| 20260901164302 | 91 | 264 | 6.1 | 10.4 | 0.00 | 0.00 | 0.00 | 76 | 1021.9 |
| 20260901163756 | 91 | 249 | 8.7 | 10.4 | 0.00 | 0.00 | 0.00 | 76 | 1022.0 |
| 20260901163251 | 91 | 221 | 3.5 | 9.6 | 0.00 | 0.00 | 0.00 | 76 | 1022.2 |
| 20260901162746 | 91 | 206 | 0.9 | 8.7 | 0.00 | 0.00 | 0.00 | 76 | 1022.0 |
| 20260901162245 | 89 | 277 | 7.8 | 13.0 | 0.00 | 0.00 | 0.00 | 76 | 1022.2 |
| 20260901161744 | 90 | 257 | 8.7 | 12.2 | 0.00 | 0.00 | 0.00 | 76 | 1022.2 |
| 20260901161239 | 91 | 226 | 6.1 | 10.4 | 0.00 | 0.00 | 0.00 | 76 | 1022.3 |
| 20260901160735 | 91 | 195 | 5.2 | 7.8 | 0.00 | 0.00 | 0.00 | 76 | 1022.3 |
| 20260901160231 | 90 | 180 | 0.9 | 10.4 | 0.00 | 0.00 | 0.00 | 76 | 1022.0 |
| 20260901155729 | 90 | 74 | 1.7 | 9.6 | 0.00 | 0.00 | 0.00 | 76 | 1022.2 |
| 20260901155224 | 90 | 205 | 5.2 | 11.3 | 0.00 | 0.00 | 0.00 | 76 | 1022.3 |
| 20260901154720 | 89 | 215 | 3.5 | 8.7 | 0.00 | 0.00 | 0.00 | 76 | 1022.3 |
| 20260901154215 | 89 | 236 | 2.6 | 7.8 | 0.00 | 0.00 | 0.00 | 76 | 1022.3 |
| 20260901153710 | 88 | 251 | 4.3 | 13.0 | 0.00 | 0.00 | 0.00 | 76 | 1022.3 |
| 20260901153203 | 89 | 220 | 6.1 | 7.8 | 0.00 | 0.00 | 0.00 | 76 | 1022.2 |
| 20260901152658 | 88 | 235 | 4.3 | 9.6 | 0.00 | 0.00 | 0.00 | 76 | 1022.4 |
| 20260901152156 | 89 | 225 | 0.0 | 9.6 | 0.00 | 0.00 | 0.00 | 76 | 1022.3 |
| 20260901151653 | 88 | 165 | 0.9 | 11.3 | 0.00 | 0.00 | 0.00 | 76 | 1022.3 |
| 20260901151152 | 88 | 204 | 1.7 | 13.0 | 0.00 | 0.00 | 0.00 | 76 | 1022.0 |
| 20260901150651 | 88 | 228 | 5.2 | 10.4 | 0.00 | 0.00 | 0.00 | 76 | 1022.4 |
| 20260901150150 | 88 | 255 | 4.3 | 5.2 | 0.00 | 0.00 | 0.00 | 76 | 1022.2 |
| 20260901145647 | 88 | 247 | 2.6 | 6.1 | 0.00 | 0.00 | 0.00 | 76 | 1022.3 |
| 20260901145142 | 87 | 256 | 4.3 | 7.8 | 0.00 | 0.00 | 0.00 | 76 | 1022.5 |
| 20260901144638 | 88 | 218 | 3.5 | 6.1 | 0.00 | 0.00 | 0.00 | 76 | 1022.3 |
| 20260901144132 | 86 | 254 | 3.5 | 8.7 | 0.00 | 0.00 | 0.00 | 76 | 1022.2 |
| 20260901143628 | 87 | 280 | 2.6 | 7.0 | 0.00 | 0.00 | 0.00 | 76 | 1022.4 |
| 20260901143124 | 87 | 194 | 1.7 | 7.0 | 0.00 | 0.00 | 0.00 | 76 | 1022.3 |
| 20260901142620 | 86 | 185 | 1.7 | 7.0 | 0.00 | 0.00 | 0.00 | 76 | 1022.3 |
| 20260901142119 | 86 | 162 | 1.7 | 3.5 | 0.00 | 0.00 | 0.00 | 76 | 1022.4 |
| 20260901141614 | 85 | 195 | 0.0 | 7.0 | 0.00 | 0.00 | 0.00 | 76 | 1022.6 |
| 20260901141109 | 85 | 288 | 2.6 | 6.1 | 0.00 | 0.00 | 0.00 | 76 | 1022.2 |
| 20260901140608 | 84 | 197 | 4.3 | 7.8 | 0.00 | 0.00 | 0.00 | 76 | 1022.4 |
| 20260901140106 | 84 | 204 | 1.7 | 7.8 | 0.00 | 0.00 | 0.00 | 76 | 1022.4 |
| 20260901135601 | 84 | 199 | 2.6 | 3.5 | 0.00 | 0.00 | 0.00 | 76 | 1022.2 |
| 20260901135056 | 83 | 151 | 0.9 | 5.2 | 0.00 | 0.00 | 0.00 | 75 | 1022.3 |
| 20260901134552 | 83 | 255 | 0.0 | 3.5 | 0.00 | 0.00 | 0.00 | 75 | 1022.6 |
| 20260901134047 | 83 | 157 | 0.9 | 5.2 | 0.00 | 0.00 | 0.00 | 75 | 1022.5 |
| 20260901133546 | 82 | 206 | 0.0 | 3.5 | 0.00 | 0.00 | 0.00 | 75 | 1022.4 |
| 20260901133045 | 82 | 209 | 4.3 | 4.3 | 0.00 | 0.00 | 0.00 | 75 | 1022.3 |
| 20260901132544 | 82 | 225 | 1.7 | 2.6 | 0.00 | 0.00 | 0.00 | 75 | 1022.4 |
| 20260901132038 | 81 | 212 | 2.6 | 4.3 | 0.00 | 0.00 | 0.00 | 75 | 1022.2 |
| 20260901131533 | 80 | 151 | 1.7 | 3.5 | 0.00 | 0.00 | 0.00 | 75 | 1022.3 |
| 20260901131028 | 80 | 194 | 2.6 | 4.3 | 0.00 | 0.00 | 0.00 | 75 | 1022.4 |
| 20260901130528 | 79 | 279 | 1.7 | 3.5 | 0.00 | 0.00 | 0.00 | 75 | 1022.3 |
| 20260901130027 | 79 | 213 | 1.7 | 3.5 | 0.00 | 0.00 | 0.00 | 75 | 1022.2 |
| 20260901125525 | 79 | 213 | 2.6 | 3.5 | 0.00 | 0.00 | 0.00 | 75 | 1022.3 |
| 20260901125021 | 78 | 201 | 1.7 | 2.6 | 0.00 | 0.00 | 0.00 | 75 | 1021.9 |
| 20260901124516 | 78 | 206 | 2.6 | 2.6 | 0.00 | 0.00 | 0.00 | 75 | 1022.2 |
| 20260901124015 | 77 | 215 | 0.9 | 1.7 | 0.00 | 0.00 | 0.00 | 75 | 1022.2 |
| 20260901123510 | 77 | 203 | 0.9 | 1.7 | 0.00 | 0.00 | 0.00 | 75 | 1022.0 |
| 20260901123009 | 74 | 192 | 0.0 | 0.0 | 0.00 | 0.00 | 0.00 | 74 | 1022.0 |
| 20260901122503 | 74 | 192 | 0.0 | 0.0 | 0.00 | 0.00 | 0.00 | 74 | 1022.0 |
| 20260901122002 | 74 | 192 | 0.0 | 0.0 | 0.00 | 0.00 | 0.00 | 74 | 1022.0 |
| 20260901121457 | 74 | 192 | 0.0 | 0.0 | 0.00 | 0.00 | 0.00 | 74 | 1021.7 |
| 20260901120947 | 74 | 192 | 0.0 | 0.0 | 0.00 | 0.00 | 0.00 | 74 | 1021.8 |
| 20260901120446 | 74 | 192 | 0.0 | 0.0 | 0.00 | 0.00 | 0.00 | 74 | 1021.7 |
| 20260901115942 | 74 | 192 | 0.0 | 0.0 | 0.00 | 0.00 | 0.00 | 74 | 1022.0 |
| 20260901115443 | 74 | 192 | 0.0 | 0.0 | 0.00 | 0.00 | 0.00 | 74 | 1021.8 |
| 20260901114940 | 74 | 192 | 0.0 | 0.0 | 0.00 | 0.00 | 0.00 | 74 | 1021.8 |
| 20260901114435 | 75 | 206 | 1.7 | 2.6 | 0.00 | 0.00 | 0.00 | 74 | 1021.6 |
| 20260901113933 | 75 | 206 | 1.7 | 2.6 | 0.00 | 0.00 | 0.00 | 74 | 1021.6 |
| 20260901113433 | 75 | 206 | 1.7 | 2.6 | 0.00 | 0.00 | 0.00 | 74 | 1021.6 |
| 20260901112928 | 75 | 206 | 1.7 | 2.6 | 0.00 | 0.00 | 0.00 | 74 | 1021.5 |
| 20260901112423 | 0 | 0.0 | 0.0 | 0.00 | 0.00 | 0.00 | 1021.3 | ||
| 20260901111918 | 74 | 240 | 0.0 | 0.0 | 0.00 | 0.00 | 0.00 | 74 | 1021.4 |
| 20260901111416 | 74 | 240 | 0.0 | 0.0 | 0.00 | 0.00 | 0.00 | 74 | 1021.2 |
| 20260901110915 | 74 | 240 | 0.0 | 0.0 | 0.00 | 0.00 | 0.00 | 74 | 1021.3 |
| 20260901110411 | 74 | 240 | 0.0 | 0.0 | 0.00 | 0.00 | 0.00 | 74 | 1021.1 |
| 20260901105907 | 74 | 240 | 0.0 | 0.0 | 0.00 | 0.00 | 0.00 | 74 | 1021.2 |
| 20260901105402 | 74 | 240 | 0.0 | 0.0 | 0.00 | 0.00 | 0.00 | 74 | 1021.1 |
| 20260901104858 | 74 | 240 | 0.0 | 0.0 | 0.00 | 0.00 | 0.00 | 74 | 1021.1 |
| 20260901104353 | 74 | 240 | 0.0 | 0.0 | 0.00 | 0.00 | 0.00 | 74 | 1021.0 |
| 20260901103849 | 74 | 240 | 0.0 | 0.0 | 0.00 | 0.00 | 0.00 | 74 | 1021.0 |
| 20260901103348 | 74 | 240 | 0.0 | 0.0 | 0.00 | 0.00 | 0.00 | 74 | 1021.1 |
| 20260901102843 | 74 | 240 | 0.0 | 0.0 | 0.00 | 0.00 | 0.00 | 74 | 1021.2 |
| 20260901102337 | 74 | 240 | 0.0 | 0.0 | 0.00 | 0.00 | 0.00 | 74 | 1021.0 |
| 20260901101833 | 75 | 246 | 1.7 | 1.7 | 0.00 | 0.00 | 0.00 | 74 | 1020.8 |
| 20260901101333 | 75 | 246 | 1.7 | 1.7 | 0.00 | 0.00 | 0.00 | 74 | 1021.0 |
| 20260901100827 | 75 | 246 | 1.7 | 1.7 | 0.00 | 0.00 | 0.00 | 74 | 1021.0 |
| 20260901100322 | 75 | 246 | 1.7 | 1.7 | 0.00 | 0.00 | 0.00 | 74 | 1021.0 |
| 20260901095821 | 75 | 246 | 1.7 | 1.7 | 0.00 | 0.00 | 0.00 | 74 | 1021.1 |
| 20260901095318 | 75 | 240 | 0.0 | 0.0 | 0.00 | 0.00 | 0.00 | 74 | 1020.9 |
| 20260901094813 | 75 | 240 | 0.0 | 0.0 | 0.00 | 0.00 | 0.00 | 74 | 1020.8 |
| 20260901094308 | 75 | 240 | 0.0 | 0.0 | 0.00 | 0.00 | 0.00 | 74 | 1020.9 |
| 20260901093803 | 75 | 240 | 0.0 | 0.0 | 0.00 | 0.00 | 0.00 | 74 | 1020.8 |
| 20260901093301 | 75 | 240 | 0.0 | 0.0 | 0.00 | 0.00 | 0.00 | 74 | 1020.9 |
| 20260901092757 | 75 | 240 | 0.0 | 0.0 | 0.00 | 0.00 | 0.00 | 74 | 1020.8 |
| 20260901092254 | 75 | 240 | 0.0 | 0.0 | 0.00 | 0.00 | 0.00 | 74 | 1020.9 |
| 20260901091748 | 75 | 194 | 0.0 | 0.0 | 0.00 | 0.00 | 0.00 | 74 | 1020.8 |
| 20260901091243 | 75 | 216 | 0.0 | 0.0 | 0.00 | 0.00 | 0.00 | 74 | 1020.9 |
| 20260901090738 | 75 | 227 | 2.6 | 2.6 | 0.00 | 0.00 | 0.00 | 74 | 1020.7 |
| 20260901090233 | 75 | 254 | 1.7 | 1.7 | 0.00 | 0.00 | 0.00 | 74 | 1020.8 |
| 20260901085729 | 72 | 4 | 1.7 | 1.7 | 0.00 | 0.00 | 0.00 | 74 | 1020.9 |
| 20260901085224 | 72 | 4 | 1.7 | 1.7 | 0.00 | 0.00 | 0.00 | 74 | 1020.6 |
| 20260901084720 | 72 | 4 | 1.7 | 1.7 | 0.00 | 0.00 | 0.00 | 74 | 1020.9 |
| 20260901084216 | 72 | 4 | 1.7 | 1.7 | 0.00 | 0.00 | 0.00 | 74 | 1020.5 |
| 20260901083711 | 72 | 352 | 1.7 | 1.7 | 0.00 | 0.00 | 0.00 | 74 | 1020.6 |
| 20260901083211 | 75 | 197 | 2.6 | 2.6 | 0.00 | 0.00 | 0.00 | 74 | 1020.8 |
| 20260901082709 | 75 | 197 | 2.6 | 2.6 | 0.00 | 0.00 | 0.00 | 74 | 1020.4 |
| 20260901082205 | 75 | 197 | 2.6 | 2.6 | 0.00 | 0.00 | 0.00 | 74 | 1020.6 |
| 20260901081701 | 75 | 197 | 2.6 | 2.6 | 0.00 | 0.00 | 0.00 | 74 | 1020.4 |
| 20260901081200 | 75 | 197 | 2.6 | 2.6 | 0.00 | 0.00 | 0.00 | 74 | 1020.5 |
| 20260901080655 | 75 | 182 | 2.6 | 2.6 | 0.00 | 0.00 | 0.00 | 74 | 1020.2 |
| 20260901080153 | 75 | 182 | 2.6 | 2.6 | 0.00 | 0.00 | 0.00 | 74 | 1020.2 |
| 20260901075648 | 77 | 186 | 0.0 | 2.6 | 0.00 | 0.00 | 0.00 | 75 | 1020.4 |
| 20260901075143 | 77 | 186 | 0.0 | 2.6 | 0.00 | 0.00 | 0.00 | 75 | 1020.4 |
| 20260901074642 | 77 | 186 | 0.0 | 2.6 | 0.00 | 0.00 | 0.00 | 75 | 1020.2 |
| 20260901074138 | 77 | 186 | 0.0 | 2.6 | 0.00 | 0.00 | 0.00 | 75 | 1020.3 |
| 20260901073634 | 77 | 186 | 0.0 | 2.6 | 0.00 | 0.00 | 0.00 | 75 | 1020.3 |
| 20260901073130 | 77 | 186 | 0.0 | 2.6 | 0.00 | 0.00 | 0.00 | 75 | 1020.2 |
| 20260901072625 | 77 | 186 | 0.0 | 2.6 | 0.00 | 0.00 | 0.00 | 75 | 1020.5 |
| 20260901072119 | 77 | 186 | 0.0 | 2.6 | 0.00 | 0.00 | 0.00 | 75 | 1020.3 |
| 20260901071614 | 77 | 186 | 0.0 | 2.6 | 0.00 | 0.00 | 0.00 | 75 | 1020.5 |
| 20260901071113 | 78 | 208 | 1.7 | 1.7 | 0.00 | 0.00 | 0.00 | 75 | 1020.6 |
| 20260901070607 | 78 | 208 | 1.7 | 1.7 | 0.00 | 0.00 | 0.00 | 75 | 1020.3 |
| 20260901065556 | 78 | 203 | 1.7 | 2.6 | 0.00 | 0.00 | 0.00 | 75 | 1020.2 |
| 20260901065051 | 77 | 165 | 0.9 | 0.9 | 0.00 | 0.00 | 0.00 | 75 | 1020.3 |
| 20260901064549 | 75 | 200 | 0.9 | 1.7 | 0.00 | 0.00 | 0.00 | 74 | 1020.2 |
| 20260901064045 | 75 | 249 | 0.0 | 0.0 | 0.00 | 0.00 | 0.00 | 74 | 1020.5 |
| 20260901063541 | 75 | 203 | 0.0 | 0.0 | 0.00 | 0.00 | 0.00 | 74 | 1020.5 |
| 20260901063037 | 75 | 203 | 0.0 | 0.0 | 0.00 | 0.00 | 0.00 | 74 | 1020.4 |
| 20260901062533 | 75 | 203 | 0.0 | 0.0 | 0.00 | 0.00 | 0.00 | 74 | 1020.6 |
| 20260901062028 | 76 | 195 | 0.0 | 0.0 | 0.00 | 0.00 | 0.00 | 74 | 1020.6 |
| 20260901061525 | 75 | 188 | 0.0 | 0.0 | 0.00 | 0.00 | 0.00 | 74 | 1020.7 |
| 20260901061024 | 75 | 188 | 0.0 | 0.0 | 0.00 | 0.00 | 0.00 | 74 | 1020.7 |
| 20260901060519 | 0 | 0.0 | 0.0 | 0.00 | 0.00 | 0.00 | 1020.7 | ||
| 20260901060014 | 0 | 0.0 | 0.0 | 0.00 | 0.00 | 0.00 | 1020.5 | ||
| 20260901055510 | 80 | 160 | 0.0 | 0.9 | 0.00 | 0.00 | 0.00 | 75 | 1020.7 |
| 20260901055007 | 80 | 160 | 0.0 | 0.9 | 0.00 | 0.00 | 0.00 | 75 | 1020.4 |
| 20260901054504 | 80 | 160 | 0.0 | 0.9 | 0.00 | 0.00 | 0.00 | 75 | 1020.8 |
| 20260901053959 | 80 | 160 | 0.0 | 0.9 | 0.00 | 0.00 | 0.00 | 75 | 1020.8 |
| 20260901053454 | 80 | 160 | 0.0 | 0.9 | 0.00 | 0.00 | 0.00 | 75 | 1020.5 |
| 20260901052950 | 80 | 160 | 0.0 | 0.9 | 0.00 | 0.00 | 0.00 | 75 | 1020.4 |
| 20260901052445 | 80 | 160 | 0.0 | 0.9 | 0.00 | 0.00 | 0.00 | 75 | 1020.5 |
| 20260901051944 | 80 | 160 | 0.0 | 0.9 | 0.00 | 0.00 | 0.00 | 75 | 1020.4 |
| 20260901051440 | 80 | 160 | 0.0 | 0.9 | 0.00 | 0.00 | 0.00 | 75 | 1020.5 |
| 20260901050939 | 80 | 160 | 0.0 | 0.9 | 0.00 | 0.00 | 0.00 | 75 | 1020.7 |
| 20260901050435 | 80 | 160 | 0.0 | 0.9 | 0.00 | 0.00 | 0.00 | 75 | 1020.5 |
| 20260901045935 | 80 | 160 | 0.0 | 0.9 | 0.00 | 0.00 | 0.00 | 75 | 1020.4 |
| 20260901045430 | 81 | 139 | 1.7 | 1.7 | 0.00 | 0.00 | 0.00 | 75 | 1020.4 |
| 20260901044925 | 81 | 139 | 1.7 | 1.7 | 0.00 | 0.00 | 0.00 | 75 | 1020.5 |
| 20260901044421 | 81 | 139 | 1.7 | 1.7 | 0.00 | 0.00 | 0.00 | 75 | 1020.5 |
| 20260901043917 | 81 | 139 | 1.7 | 1.7 | 0.00 | 0.00 | 0.00 | 75 | 1020.6 |
| 20260901043413 | 81 | 161 | 1.7 | 1.7 | 0.00 | 0.00 | 0.00 | 75 | 1020.4 |
| 20260901042912 | 80 | 220 | 1.7 | 1.7 | 0.00 | 0.00 | 0.00 | 75 | 1020.6 |
| 20260901042407 | 80 | 220 | 1.7 | 1.7 | 0.00 | 0.00 | 0.00 | 75 | 1020.7 |
| 20260901041902 | 80 | 220 | 1.7 | 1.7 | 0.00 | 0.00 | 0.00 | 75 | 1020.4 |
| 20260901041357 | 80 | 220 | 1.7 | 1.7 | 0.00 | 0.00 | 0.00 | 75 | 1020.5 |
| 20260901040857 | 0 | 0.0 | 0.0 | 0.00 | 0.00 | 0.00 | 1020.5 | ||
| 20260901040356 | 83 | 152 | 1.7 | 2.6 | 0.00 | 0.00 | 0.00 | 75 | 1020.4 |
| 20260901035855 | 83 | 152 | 1.7 | 2.6 | 0.00 | 0.00 | 0.00 | 75 | 1020.4 |
| 20260901035354 | 83 | 152 | 1.7 | 2.6 | 0.00 | 0.00 | 0.00 | 75 | 1020.5 |
| 20260901034853 | 83 | 152 | 1.7 | 2.6 | 0.00 | 0.00 | 0.00 | 75 | 1020.5 |
| 20260901034348 | 83 | 152 | 1.7 | 2.6 | 0.00 | 0.00 | 0.00 | 75 | 1020.5 |
| 20260901033843 | 83 | 152 | 1.7 | 2.6 | 0.00 | 0.00 | 0.00 | 75 | 1020.4 |
| 20260901033342 | 83 | 152 | 1.7 | 2.6 | 0.00 | 0.00 | 0.00 | 75 | 1020.5 |
| 20260901032841 | 83 | 152 | 1.7 | 2.6 | 0.00 | 0.00 | 0.00 | 75 | 1020.5 |
| 20260901032340 | 83 | 152 | 1.7 | 2.6 | 0.00 | 0.00 | 0.00 | 75 | 1020.4 |
| 20260901031836 | 83 | 152 | 1.7 | 2.6 | 0.00 | 0.00 | 0.00 | 75 | 1020.4 |
| 20260901031332 | 83 | 152 | 1.7 | 2.6 | 0.00 | 0.00 | 0.00 | 75 | 1020.2 |
| 20260901030831 | 83 | 152 | 1.7 | 2.6 | 0.00 | 0.00 | 0.00 | 75 | 1020.1 |
| 20260901030327 | 83 | 142 | 2.6 | 2.6 | 0.00 | 0.00 | 0.00 | 75 | 1020.2 |
| 20260901025826 | 83 | 150 | 1.7 | 2.6 | 0.00 | 0.00 | 0.00 | 75 | 1020.2 |
| 20260901025321 | 0 | 0.0 | 0.0 | 0.00 | 0.00 | 0.00 | 1020.2 | ||
| 20260901024816 | 0 | 0.0 | 0.0 | 0.00 | 0.00 | 0.00 | 1020.3 | ||
| 20260901024315 | 0 | 0.0 | 0.0 | 0.00 | 0.00 | 0.00 | 1020.0 | ||
| 20260901023813 | 0 | 0.0 | 0.0 | 0.00 | 0.00 | 0.00 | 1019.9 | ||
| 20260901023308 | 0 | 0.0 | 0.0 | 0.00 | 0.00 | 0.00 | 1020.0 | ||
| 20260901022804 | 0 | 0.0 | 0.0 | 0.00 | 0.00 | 0.00 | 1020.0 | ||
| 20260901022259 | 0 | 0.0 | 0.0 | 0.00 | 0.00 | 0.00 | 1019.9 | ||
| 20260901021754 | 0 | 0.0 | 0.0 | 0.00 | 0.00 | 0.00 | 1019.7 | ||
| 20260901021250 | 87 | 152 | 2.6 | 6.1 | 0.00 | 0.00 | 0.00 | 76 | 1019.9 |
| 20260901020745 | 87 | 152 | 2.6 | 6.1 | 0.00 | 0.00 | 0.00 | 76 | 1019.6 |
| 20260901020240 | 87 | 152 | 2.6 | 6.1 | 0.00 | 0.00 | 0.00 | 76 | 1019.6 |
| 20260901015734 | 87 | 152 | 2.6 | 6.1 | 0.00 | 0.00 | 0.00 | 76 | 1019.4 |
| 20260901015231 | 87 | 152 | 2.6 | 6.1 | 0.00 | 0.00 | 0.00 | 76 | 1019.7 |
| 20260901014730 | 87 | 152 | 2.6 | 6.1 | 0.00 | 0.00 | 0.00 | 76 | 1019.6 |
| 20260901014226 | 87 | 152 | 2.6 | 6.1 | 0.00 | 0.00 | 0.00 | 76 | 1019.4 |
| 20260901013721 | 87 | 152 | 2.6 | 6.1 | 0.00 | 0.00 | 0.00 | 76 | 1019.4 |
| 20260901013217 | 87 | 152 | 2.6 | 6.1 | 0.00 | 0.00 | 0.00 | 76 | 1019.3 |
| 20260901012712 | 87 | 152 | 2.6 | 6.1 | 0.00 | 0.00 | 0.00 | 76 | 1019.2 |
| 20260901012207 | 87 | 152 | 2.6 | 6.1 | 0.00 | 0.00 | 0.00 | 76 | 1019.1 |
| 20260901011703 | 87 | 152 | 2.6 | 7.8 | 0.00 | 0.00 | 0.00 | 76 | 1018.9 |
| 20260901011202 | 88 | 199 | 1.7 | 6.1 | 0.00 | 0.00 | 0.00 | 76 | 1018.9 |
| 20260901010656 | 88 | 199 | 1.7 | 6.1 | 0.00 | 0.00 | 0.00 | 76 | 1018.7 |
| 20260901010151 | 88 | 199 | 1.7 | 6.1 | 0.00 | 0.00 | 0.00 | 76 | 1018.7 |
| 20260901005650 | 88 | 199 | 1.7 | 6.1 | 0.00 | 0.00 | 0.00 | 76 | 1018.6 |
| 20260901005146 | 89 | 147 | 3.5 | 4.3 | 0.00 | 0.00 | 0.00 | 76 | 1018.8 |
| 20260901004645 | 89 | 152 | 6.1 | 6.1 | 0.00 | 0.00 | 0.00 | 76 | 1018.6 |
| 20260901004139 | 0 | 0.0 | 0.0 | 0.00 | 0.00 | 0.00 | 1018.6 | ||
| 20260901003635 | 0 | 0.0 | 0.0 | 0.00 | 0.00 | 0.00 | 1018.6 | ||
| 20260901003133 | 0 | 0.0 | 0.0 | 0.00 | 0.00 | 0.00 | 1018.6 | ||
| 20260901002628 | 0 | 0.0 | 0.0 | 0.00 | 0.00 | 0.00 | 1018.3 | ||
| 20260901002122 | 0 | 0.0 | 0.0 | 0.00 | 0.00 | 0.00 | 1018.4 | ||
| 20260901001617 | 0 | 0.0 | 0.0 | 0.00 | 0.00 | 0.00 | 1018.5 | ||
| 20260901001112 | 0 | 0.0 | 0.0 | 0.00 | 0.00 | 0.00 | 1018.4 | ||
| 20260901000607 | 0 | 0.0 | 0.0 | 0.00 | 0.00 | 0.00 | 1018.7 | ||
| 20260901000058 | 95 | 156 | 1.7 | 1.7 | 0.00 | 0.00 | 0.00 | 77 | 1018.4 |
| 20260831235551 | 95 | 156 | 1.7 | 1.7 | 0.00 | 0.00 | 0.00 | 77 | 1018.4 |
| 20260831235047 | 95 | 156 | 1.7 | 1.7 | 0.00 | 0.00 | 0.00 | 77 | 1018.5 |
| 20260831234540 | 95 | 156 | 1.7 | 1.7 | 0.00 | 0.00 | 0.00 | 77 | 1018.8 |
| 20260831234036 | 95 | 156 | 1.7 | 1.7 | 0.00 | 0.00 | 0.00 | 77 | 1018.3 |